Flag for Germany Weather past 2 weeks in Bad Salzuflen, North Rhine-Westphalia, Germany

Now
57 °F

Scattered clouds.


Feels Like: 56 °F
Forecast: 46 / 64 °F
Wind: 7 mph from West

Location: Bueckeburg

Current Time: Aug 23, 2014 at 4:37:36 PM

Latest Report: Aug 23, 2014 at 3:20 PM


Visibility: N/A

Pressure: 29.89 "Hg

Humidity: 77%

Dew point: 50 °F

Location of Bad SalzuflenLocation

Historic Weather in Bad Salzuflen — Graph

°F

Bad Salzuflen temperature yesterday

Maximum temperature yesterday: 66 °F (at 2:20 PM)
Minimum temperature yesterday: 54 °F (at 12:20 AM)
Average temperature yesterday: 59 °F

Past Weeks' High & Low Weather Summary

 TemperatureHumidityPressure
High79 °F (Aug 8, 3:20 PM)94% (Aug 15, 1:20 AM)30.01 "Hg (Aug 15, 1:20 AM)
Low50 °F (Aug 20, 1:20 AM)38% (Aug 11, 5:20 PM)29.56 "Hg (Aug 10, 8:20 PM)
Average61 °F73%29.83 "Hg
* Reported Aug 8 3:20 PM — Aug 23 3:20 PM, Bad Salzuflen, Weather by CustomWeather, © 2014

Note: Actual official high and low records may vary slightly from our data, if they occured in-between our weather recording intervals... More about our weather records

Advertising

Bad Salzuflen weather history for previous 24 hours

 ConditionsComfort  
Time TempWeatherWind HumidityBarometerVisibility
3:20 PM
Aug 23
57 °FScattered clouds.7 mph77%29.89 "HgN/A
2:20 PM63 °FPartly sunny.7 mph56%29.89 "HgN/A
1:20 PM63 °FScattered clouds.10 mph52%29.89 "HgN/A
12:20 PM59 °FScattered clouds.8 mph68%29.89 "HgN/A
11:20 AM61 °FScattered clouds.9 mph63%29.89 "HgN/A
10:20 AM57 °FScattered clouds.7 mph77%29.89 "HgN/A
9:20 AM57 °FPassing clouds.9 mph77%29.89 "HgN/A
8:20 AM54 °FPassing clouds.7 mph88%29.89 "Hg5 mi
7:20 AM52 °FFog.6 mph94%29.89 "Hg3 mi
6:20 AM52 °FFog.8 mph94%29.86 "Hg3 mi
5:46 AM52 °FFog.7 mph94%29.86 "Hg3 mi
5:20 AM52 °FPassing clouds.8 mph94%29.86 "Hg5 mi
4:20 AM54 °FPassing clouds.7 mph94%29.86 "Hg5 mi
3:20 AM54 °FPartly cloudy.6 mph88%29.86 "Hg5 mi
2:20 AM54 °FPartly cloudy.9 mph88%29.86 "HgN/A
1:20 AM54 °FPassing clouds.7 mph88%29.86 "HgN/A
12:20 AM55 °FPartly cloudy.9 mph88%29.86 "HgN/A
11:20 PM
Aug 22
54 °FPassing clouds.6 mph88%29.86 "HgN/A
10:20 PM55 °FPassing clouds.10 mph82%29.86 "HgN/A
9:20 PM55 °FLight rain. Partly sunny.8 mph88%29.86 "HgN/A
8:20 PM55 °FLight rain. Partly sunny.9 mph88%29.86 "HgN/A
7:20 PM61 °FLight rain. Partly sunny.6 mph68%29.83 "HgN/A
6:20 PM61 °FPartly sunny.12 mph68%29.83 "HgN/A
5:20 PM64 °FPartly sunny.10 mph56%29.83 "HgN/A
4:20 PM64 °FSprinkles. Broken clouds.12 mph56%29.83 "HgN/A
Weather by CustomWeather, © 2014

See weather overviewHow to use our weather pages